Location: Unspecified
(0.0000°N, 0.0000°E)
Time: 23:34:53
(UTC+00:00)

Envisat - Pass Details

Date: 21 January 2022
Orbit: 764 x 766 km, 98.2° (Epoch: 27 January)

Event Time Altitude Azimuth Distance (km) Brightness Sun altitude
Rises 04:17:22 0° 17° (NNE) 3,213 6.2 -26.6°
Reaches altitude 10° 04:19:40 10° 20° (NNE) 2,290 5.4 -26.1°
Maximum altitude 04:24:41 67° 102° (ESE) 827 3.3 -24.9°
Drops below altitude 10° 04:29:43 10° 184° (S) 2,301 5.7 -23.8°
Sets 04:32:02 0° 187° (S) 3,229 6.4 -23.2°
